Weather History for Estherville, IA

Change the Weather History Date:

Thursday, February 14, 2013

  Actual Average Record
Temperature  
Mean Temperature 25 °F 20 °F  
Max Temperature 36 °F 29 °F 62 °F (1954)
Min Temperature 13 °F 11 °F -15 °F (1970)
Degree Days  
Heating Degree Days 40 45  
Month to date heating degree days 577 654  
Since 1 July heating degree days 4971 5325  
Cooling Degree Days 0 0  
Month to date cooling degree days 0 0  
Year to date cooling degree days 0 0  
Moisture  
Dew Point 23 °F    
Average Humidity 80    
Maximum Humidity 92    
Minimum Humidity 67    
Precipitation  
Precipitation T in 0.01 in 0.60 in (1965)
Month to date precipitation 0.43 0.18  
Sea Level Pressure  
Sea Level Pressure 29.93 in    
Wind  
Wind Speed 18 mph (NW)    
Max Wind Speed 30 mph    
Max Gust Speed 37 mph    
Visibility 7 miles    
Events Snow    
T = Trace of Precipitation, MM = Missing Value Source: NWS Daily Summary

Daily Weather History Graph

Daily Weather History Graph

Search for Another Location

Airport:

Trip Planner

Search our weather history database for the weather conditions in past years. The results will help you decide how hot, cold, wet, or windy it might be!

Date:

Astronomy

Feb. 14, 2013 Rise Set
Actual Time 7:18 AM CST 5:48 PM CST
Civil Twilight 6:48 AM CST 6:18 PM CST
Nautical Twilight 6:15 AM CST 6:51 PM CST
Astronomical Twilight 5:42 AM CST 7:24 PM CST
Moon 9:10 AM CST (2/14) 11:03 PM CST (2/14)
Length of Visible Light 11h 29m
Length of Day
10h 30m
Waxing Crescent, 22% of the Moon is Illuminated
Feb 14
Waxing Crescent
Feb 17
First Quarter
Feb 25
Full
Mar 4
Last Quarter
Mar 11
New

Hourly Weather History & Observations

Time (CST) Temp. Windchill Dew Point Humidity Pressure Visibility Wind Dir Wind Speed Gust Speed Precip Events Conditions
12:52 AM 33.1 °F 21.5 °F 28.0 °F 82% 29.68 in 10.0 mi NW 19.6 mph 28.8 mph N/A   Overcast
1:32 AM 33.8 °F 21.6 °F 28.4 °F 81% 29.67 in 10.0 mi NW 23.0 mph 33.4 mph N/A   Overcast
1:52 AM 33.1 °F 20.9 °F 28.0 °F 82% 29.71 in 10.0 mi NW 21.9 mph 32.2 mph N/A   Overcast
2:09 AM 32.0 °F 17.6 °F 28.4 °F 87% 29.69 in 10.0 mi NW 29.9 mph 36.8 mph N/A   Overcast
3:00 AM 32.0 °F 19.5 °F 28.4 °F 87% 29.72 in 8.0 mi NW 21.9 mph 28.8 mph N/A   Overcast
3:52 AM 30.9 °F 18.1 °F 28.0 °F 89% 29.78 in 7.0 mi NW 21.9 mph - N/A   Overcast
4:52 AM 30.9 °F 18.4 °F 28.0 °F 89% 29.80 in 7.0 mi NW 20.7 mph - N/A   Overcast
5:52 AM 30.9 °F 18.7 °F 27.0 °F 85% 29.84 in 7.0 mi NW 19.6 mph 25.3 mph N/A   Overcast
6:52 AM 30.0 °F 19.1 °F 27.0 °F 88% 29.86 in 7.0 mi NW 15.0 mph - N/A   Overcast
7:44 AM 28.4 °F 18.0 °F 26.6 °F 93% 29.83 in 5.0 mi NW 12.7 mph - N/A   Scattered Clouds
7:52 AM 28.9 °F 18.6 °F 26.1 °F 89% 29.87 in 5.0 mi NW 12.7 mph - N/A   Scattered Clouds
8:24 AM 30.2 °F 20.2 °F 26.6 °F 86% 29.84 in 6.0 mi NW 12.7 mph - N/A   Mostly Cloudy
8:52 AM 30.0 °F 21.1 °F 27.0 °F 88% 29.88 in 7.0 mi NW 10.4 mph - N/A   Overcast
9:24 AM 30.2 °F 20.8 °F 26.6 °F 86% 29.85 in 8.0 mi NW 11.5 mph - N/A   Overcast
9:52 AM 30.9 °F 22.8 °F 27.0 °F 85% 29.89 in 8.0 mi NW 9.2 mph - N/A   Overcast
10:32 AM 30.2 °F 22.6 °F 26.6 °F 86% 29.87 in 8.0 mi West 8.1 mph - N/A   Overcast
10:52 AM 30.9 °F 22.8 °F 27.0 °F 85% 29.92 in 3.0 mi WNW 9.2 mph - 0.00 in Snow Light Snow
10:57 AM 30.2 °F 21.9 °F 26.6 °F 86% 29.88 in 1.8 mi WNW 9.2 mph - 0.00 in Snow Light Snow
11:04 AM 30.2 °F 21.9 °F 26.6 °F 86% 29.88 in 1.0 mi WNW 9.2 mph - 0.00 in Snow Light Snow
11:10 AM 30.2 °F 21.3 °F 28.4 °F 93% 29.88 in 2.0 mi WNW 10.4 mph - 0.00 in Snow Light Snow
11:29 AM 30.2 °F 21.3 °F 26.6 °F 86% 29.88 in 4.0 mi NW 10.4 mph - 0.00 in Snow Light Snow
11:52 AM 30.0 °F 20.5 °F 27.0 °F 88% 29.93 in 3.0 mi NNW 11.5 mph - 0.00 in Snow Light Snow
12:36 PM 30.2 °F 19.8 °F 26.6 °F 86% 29.90 in 2.5 mi NNW 13.8 mph - 0.00 in Snow Light Snow
12:52 PM 30.0 °F 19.1 °F 25.0 °F 82% 29.95 in 1.8 mi NNW 15.0 mph - 0.00 in Snow Light Snow
1:08 PM 28.4 °F 17.5 °F 24.8 °F 86% 29.91 in 2.5 mi North 13.8 mph - 0.00 in Snow Light Snow
1:13 PM 28.4 °F 17.0 °F 24.8 °F 86% 29.91 in 1.8 mi NNW 15.0 mph - 0.00 in Snow Light Snow
1:23 PM 28.4 °F 17.5 °F 24.8 °F 86% 29.91 in 3.0 mi North 13.8 mph - 0.00 in Snow Light Snow
1:34 PM 28.4 °F 17.0 °F 24.8 °F 86% 29.92 in 1.8 mi North 15.0 mph - 0.00 in Snow Light Snow
1:52 PM 28.9 °F 17.7 °F 25.0 °F 85% 29.97 in 1.2 mi NNW 15.0 mph - 0.00 in Snow Light Snow
2:08 PM 28.4 °F 16.6 °F 24.8 °F 86% 29.93 in 3.0 mi NNW 16.1 mph - 0.00 in Snow Light Snow
2:22 PM 28.4 °F 17.0 °F 24.8 °F 86% 29.94 in 7.0 mi NNW 15.0 mph - 0.00 in   Mostly Cloudy
2:29 PM 30.2 °F 18.5 °F 24.8 °F 80% 29.94 in 7.0 mi NNW 17.3 mph - 0.00 in   Mostly Cloudy
2:36 PM 30.2 °F 18.1 °F 24.8 °F 80% 29.95 in 10.0 mi NNW 18.4 mph - 0.00 in   Mostly Cloudy
2:52 PM 30.0 °F 16.9 °F 23.0 °F 75% 30.00 in 10.0 mi NNW 21.9 mph - 0.00 in   Mostly Cloudy
3:52 PM 28.0 °F 14.9 °F 21.9 °F 78% 30.04 in 10.0 mi NNW 19.6 mph 27.6 mph N/A   Mostly Cloudy
4:01 PM 28.4 °F 14.4 °F 21.2 °F 74% 30.00 in 10.0 mi NNW 23.0 mph - N/A   Mostly Cloudy
4:09 PM 26.6 °F 12.4 °F 21.2 °F 80% 30.00 in 10.0 mi NNW 21.9 mph - N/A   Scattered Clouds
4:52 PM 26.1 °F 12.0 °F 19.0 °F 75% 30.09 in 10.0 mi NNW 20.7 mph - N/A   Clear
5:52 PM 23.0 °F 8.7 °F 15.1 °F 72% 30.14 in 10.0 mi NNW 18.4 mph - N/A   Clear
6:52 PM 19.9 °F 5.2 °F 12.9 °F 74% 30.17 in 10.0 mi NNW 17.3 mph - N/A   Clear
7:52 PM 18.0 °F 0.9 °F 10.0 °F 71% 30.20 in 10.0 mi NNW 21.9 mph 28.8 mph N/A   Clear
8:52 PM 16.0 °F -1.7 °F 8.1 °F 71% 30.22 in 10.0 mi NNW 21.9 mph 28.8 mph N/A   Clear
9:52 PM 16.0 °F -2.1 °F 7.0 °F 68% 30.25 in 10.0 mi NNW 23.0 mph 26.5 mph N/A   Clear
10:52 PM 14.0 °F -2.0 °F 6.1 °F 71% 30.25 in 10.0 mi NNW 16.1 mph - N/A   Clear
11:52 PM 12.9 °F -3.4 °F 3.9 °F 67% 30.27 in 10.0 mi NNW 16.1 mph - N/A   Clear